Weather History for KPUB - June, 2013

Change the Weather History Date:

Tuesday, June 25, 2013

  Actual Average Record
Temperature  
Mean Temperature 79 °F 73 °F  
Max Temperature 97 °F 91 °F 105 °F (2012)
Min Temperature 61 °F 55 °F 45 °F (1998)
Degree Days  
Heating Degree Days 0 0  
Month to date heating degree days 17 22  
Since 1 June heating degree days 17 22  
Since 1 July heating degree days 5724 5635  
Cooling Degree Days 14 8  
Month to date cooling degree days 230 130  
Year to date cooling degree days 303 164  
Since 1 June cooling degree days 230 130  
Growing Degree Days 30 (Base 50)    
Moisture  
Dew Point 20 °F    
Average Humidity 13    
Maximum Humidity 19    
Minimum Humidity 6    
Precipitation  
Precipitation 0.00 in 0.05 in 0.67 in (1897)
Month to date precipitation 0.27 1.12  
Year to date precipitation 2.20 5.61  
Snow  
Snow 0.00 in 0.00 in 0.00 in (2002)
Month to date snowfall T 0.0  
Since 1 June snowfall T 0.0  
Since 1 July snowfall 24.4 31.8  
Snow Depth 0.00 in    
Sea Level Pressure  
Sea Level Pressure 29.67 in    
Wind  
Wind Speed 10 mph (WSW)    
Max Wind Speed 23 mph    
Max Gust Speed 31 mph    
Visibility 10 miles    
Events      
T = Trace of Precipitation, MM = Missing Value Source: NWS Daily Summary

Daily Weather History Graph

Daily Weather History Graph

Search for Another Location

Airport or City:

Trip Planner

Search our weather history database for the weather conditions in past years. The results will help you decide how hot, cold, wet, or windy it might be!

Date:

Astronomy

Jun. 25, 2013 Rise Set
Actual Time 5:35 AM MDT 8:25 PM MDT
Civil Twilight 5:04 AM MDT 8:57 PM MDT
Nautical Twilight 4:24 AM MDT 9:36 PM MDT
Astronomical Twilight 3:39 AM MDT 10:22 PM MDT
Moon 10:15 PM MDT (6/25) 8:16 AM MDT (6/25)
Length of Visible Light 15h 52m
Length of Day
14h 49m
Waning Gibbous, 92% of the Moon is Illuminated
Jun 25
Waning Gibbous
Jun 29
Last Quarter
Jul 8
New
Jul 15
First Quarter
Jul 22
Full

Hourly Weather History & Observations

Time (MDT) Temp. Dew Point Humidity Pressure Visibility Wind Dir Wind Speed Gust Speed Precip Events Conditions
12:53 AM 78.1 °F 10.9 °F 8% 29.60 in 7.0 mi WSW 8.1 mph - N/A   Partly Cloudy
1:53 AM 75.9 °F 15.1 °F 10% 29.59 in 7.0 mi Calm Calm - N/A   Clear
2:53 AM 73.0 °F 14.0 °F 11% 29.60 in 10.0 mi West 10.4 mph - N/A   Clear
3:53 AM 66.9 °F 14.0 °F 13% 29.62 in 10.0 mi WNW 9.2 mph - N/A   Clear
4:53 AM 64.9 °F 15.1 °F 15% 29.64 in 10.0 mi WSW 9.2 mph - N/A   Clear
5:53 AM 63.0 °F 16.0 °F 16% 29.67 in 10.0 mi WNW 3.5 mph - N/A   Clear
6:53 AM 70.0 °F 18.0 °F 14% 29.68 in 10.0 mi WNW 12.7 mph - N/A   Clear
7:53 AM 72.0 °F 25.0 °F 17% 29.71 in 10.0 mi South 4.6 mph - N/A   Clear
8:53 AM 82.0 °F 19.0 °F 10% 29.71 in 10.0 mi WNW 12.7 mph - N/A   Clear
9:53 AM 87.1 °F 15.1 °F 7% 29.70 in 10.0 mi NW 18.4 mph 26.5 mph N/A   Clear
10:53 AM 90.0 °F 16.0 °F 7% 29.69 in 10.0 mi West 18.4 mph 24.2 mph N/A   Clear
11:53 AM 91.0 °F 16.0 °F 6% 29.69 in 10.0 mi West 18.4 mph - N/A   Clear
12:53 PM 91.9 °F 18.0 °F 7% 29.68 in 10.0 mi West 12.7 mph 21.9 mph N/A   Clear
1:53 PM 91.9 °F 19.0 °F 7% 29.67 in 10.0 mi Variable 3.5 mph - N/A   Clear
2:53 PM 95.0 °F 21.0 °F 7% 29.65 in 10.0 mi South 13.8 mph 19.6 mph N/A   Clear
3:53 PM 96.1 °F 21.0 °F 7% 29.64 in 10.0 mi SSE 10.4 mph - N/A   Clear
4:53 PM 97.0 °F 19.9 °F 6% 29.63 in 10.0 mi South 11.5 mph - N/A   Clear
5:53 PM 96.1 °F 21.0 °F 7% 29.62 in 10.0 mi South 9.2 mph 16.1 mph N/A   Clear
6:53 PM 95.0 °F 21.0 °F 7% 29.62 in 10.0 mi SSE 9.2 mph - N/A   Clear
7:53 PM 91.9 °F 24.1 °F 9% 29.63 in 10.0 mi SSE 6.9 mph - N/A   Clear
8:53 PM 86.0 °F 25.0 °F 11% 29.65 in 9.0 mi SE 10.4 mph - N/A   Clear
9:53 PM 78.1 °F 23.0 °F 13% 29.70 in 10.0 mi Calm Calm - N/A   Clear
10:53 PM 78.1 °F 27.0 °F 15% 29.74 in 10.0 mi NE 12.7 mph - N/A   Clear
11:53 PM 75.9 °F 30.9 °F 19% 29.77 in 10.0 mi NNE 10.4 mph - N/A   Clear